This is the latest recevied weather packets stored in our database for station/object KG4LKY-5. If no packets are shown the sender has not sent any weather packets the latest 10 day(s).
| Time | Temp. | Humidity | Pressure | Rain* | Wind** | Luminosity | Snow |
|---|---|---|---|---|---|---|---|
| 1778008067 | 21.67° C | 36% | 1012.6 hPa | 0 mm | - | - | - |
| 1778007767 | 22.22° C | 35% | 1012.8 hPa | 0 mm | - | - | - |
| 1778007167 | 22.22° C | 36% | 1012.7 hPa | 0 mm | - | - | - |
| 1778006566 | 22.78° C | 39% | 1012.9 hPa | 0 mm | - | - | - |
| 1778005964 | 21.67° C | 38% | 1013 hPa | 0 mm | - | - | - |
| 1778005665 | 21.67° C | 36% | 1013 hPa | 0 mm | - | - | - |
| 1778005364 | 22.78° C | 37% | 1013.3 hPa | 0 mm | - | - | - |
| 1778004763 | 22.22° C | 39% | 1013.2 hPa | 0 mm | - | - | - |
| 1778004463 | 22.22° C | 41% | 1013.3 hPa | 0 mm | - | - | - |
| 1778004163 | 21.11° C | 38% | 1013.3 hPa | 0 mm | - | - | - |
| 1778003863 | 21.11° C | 40% | 1013.4 hPa | 0 mm | - | - | - |
| 1778003562 | 22.22° C | 39% | 1013.5 hPa | 0 mm | - | - | - |
| 1778003262 | 22.22° C | 43% | 1013.5 hPa | 0 mm | - | - | - |
| 1778002961 | 22.22° C | 40% | 1013.5 hPa | 0 mm | - | - | - |
| 1778002361 | 21.67° C | 41% | 1013.7 hPa | 0 mm | - | - | - |
| 1778002061 | 21.11° C | 39% | 1013.8 hPa | 0 mm | - | - | - |
| 1778001158 | 21.67° C | 42% | 1013.9 hPa | 0 mm | - | - | - |
| 1778000857 | 22.22° C | 42% | 1013.9 hPa | 0 mm | - | - | - |
| 1778000557 | 21.67° C | 39% | 1014.1 hPa | 0 mm | - | - | - |
| 1777999956 | 21.67° C | 39% | 1014.2 hPa | 0 mm | - | - | - |
| 1777999656 | 21.67° C | 45% | 1014.2 hPa | 0 mm | - | - | - |
| 1777999356 | 21.67° C | 43% | 1014.2 hPa | 0 mm | - | - | - |
| 1777999056 | 21.67° C | 45% | 1014.3 hPa | 0 mm | - | - | - |
| 1777998455 | 21.11° C | 44% | 1014.3 hPa | 0 mm | - | - | - |
| 1777998155 | 21.11° C | 43% | 1014.3 hPa | 0 mm | - | - | - |
* Rain since midnight (hover to see other rain measurements)
** Current wind speed in m/s (hover to see current wind gust speed)